Location: Mococo
(38.0255°N, 122.1161°W)
Time: 13:01:26
(UTC+00:00)

SKYMED 2 - Pass Details

Date: 13 February 2026
Orbit: 622 x 623 km, 97.9° (Epoch: 17 March)

Event Time Altitude Azimuth Distance (km) Brightness Sun altitude
Rises 13:14:17 0° 161° (SSE) 2,889 7.2 -21.5°
Reaches altitude 10° 13:16:28 10° 160° (SSE) 1,987 6.4 -21.1°
Maximum altitude 13:20:46 72° 76° (ENE) 657 3.7 -20.2°
Drops below altitude 10° 13:25:07 10° 352° (N) 2,001 6.1 -19.4°
Sets 13:27:19 0° 350° (N) 2,911 6.9 -18.9°
